Home   Weather   Winston-Salem   Past weeks

Flag for USA Past Weather in Winston-Salem, North Carolina, USA — Yesterday and Last 2 Weeks

Now
63 °F

Fog.


Feels Like: 63 °F
Forecast: 55 / 77 °F
Wind: No wind

Location: Smith Reynolds Airport

Current Time: Oct 1, 2016 at 12:58:14 AM

Latest Report: Sep 30, 2016 at 11:54 PM


Visibility: 1 mi

Pressure: 30.02 "Hg

Humidity: 93%

Dew Point: 61 °F

Location of Winston-SalemLocation

Past Weather in Winston-Salem — Graph

°F

Winston-Salem Temperature Yesterday

Maximum temperature yesterday: 82 °F (at 2:54 PM)
Minimum temperature yesterday: 63 °F (at 9:54 PM)
Average temperature yesterday: 73 °F

High & Low Weather Summary for the Past Weeks

 TemperatureHumidityPressure
High90 °F (Sep 24, 2:54 PM)94% (Sep 17, 4:54 AM)30.27 "Hg (Sep 17, 4:54 AM)
Low63 °F (Sep 30, 9:54 PM)35% (Sep 24, 2:54 PM)29.84 "Hg (Sep 27, 4:54 PM)
Average72 °F78%30.04 "Hg
* Reported Sep 15 10:54 PM — Sep 30 10:54 PM, Winston-Salem, Weather by CustomWeather, © 2016

Note: Actual official high and low records may vary slightly from our data, if they occured in-between our weather recording intervals... More about our weather records

Advertising

Winston-Salem Weather History for the Previous 24 Hours

Scroll right to see more
 ConditionsComfort  
Time TempWeatherWind HumidityBarometerVisibility
10:54 PM
Fri, Sep 30
63 °FPassing clouds.3 mph81%30.02 "Hg10 mi
9:54 PM63 °FClear.No wind81%30.01 "Hg10 mi
8:54 PM67 °FClear.No wind68%29.99 "Hg10 mi
7:54 PM74 °FClear.No wind45%29.97 "Hg10 mi
6:54 PM77 °FSunny.3 mph42%29.96 "Hg10 mi
5:54 PM78 °FSunny.6 mph42%29.95 "Hg10 mi
4:54 PM81 °FScattered clouds.8 mph38%29.93 "Hg10 mi
3:54 PM81 °FPassing clouds.9 mph42%29.93 "Hg10 mi
2:54 PM82 °FPassing clouds.10 mph43%29.93 "Hg10 mi
1:54 PM80 °FScattered clouds.7 mph47%29.96 "Hg10 mi
12:54 PM79 °FBroken clouds.7 mph54%29.98 "Hg10 mi
11:54 AM77 °FBroken clouds.6 mph62%29.98 "Hg10 mi
10:54 AM76 °FPartly sunny.9 mph69%29.99 "Hg10 mi
9:54 AM73 °FMostly cloudy.8 mph81%29.98 "Hg9 mi
8:54 AM71 °FLow clouds.6 mph87%29.98 "Hg7 mi
7:54 AM70 °FFog.5 mph90%29.96 "Hg6 mi
6:54 AM69 °FMostly cloudy.3 mph90%29.96 "Hg7 mi
6:02 AM68 °FThunderstorms. Passing clouds.6 mph93%29.99 "Hg7 mi
5:54 AM68 °FThundershowers. Passing clouds.6 mph93%29.95 "Hg7 mi
4:54 AM69 °FPassing clouds.No wind90%29.96 "Hg9 mi
3:54 AM68 °FPassing clouds.5 mph93%29.96 "Hg10 mi
3:03 AM70 °FLow clouds.5 mph87%30.00 "Hg10 mi
2:54 AM70 °FOvercast.3 mph87%29.97 "Hg10 mi
1:54 AM70 °FLow clouds.6 mph87%29.97 "Hg10 mi
12:54 AM70 °FLow clouds.8 mph87%29.97 "Hg10 mi
Weather by CustomWeather, © 2016

See weather overviewHow to use our weather pages